Dewpoint
23 23 22 22 22 22 23 23 22 22 23 24 24 27 29 28 29 27 28 28 29 29 29 30 29 29 29 28 25 23 21 19 19 21 22 22 22 21 21 22 22 23 21 20
23 24 24 22 23 22 23 23 24 24 24 26 28 29 30 30 28 27 28 28 29 28 28 28 28 27 25 24 23 20 18 18 18 20 19 19 20 19 19 21 21 21 19 19
17 22 19 12 16 21 22 21 23 23 24 27 28 28 28 28 28 28 28 28 27 27 27 27 25 24 23 22 19 17 16 16 17 18 17 18 19 18 18 19 19 18 19 19
17 18 10 12 20 21 22 22 23 24 25 26 26 27 28 29 29 28 27 27 26 25 24 24 23 23 23 19 15 14 13 13 15 16 16 17 18 17 18 18 18 18 19 19
17 16 14 19 21 23 22 20 24 24 25 26 27 27 26 27 27 26 26 26 27 28 27 21 21 21 19 14 13 11 11 13 15 16 16 16 17 17 17 18 18 18 18 18
19 13 9 17 23 28 26 16 25 25 24 24 25 21 22 27 27 28 29 29 29 28 24 21 18 15 13 11 11 9 11 13 15 15 16 16 17 17 18 18 18 18 18 18
15 13 11 20 26 28 13 13 26 24 23 22 23 21 25 28 28 28 28 27 25 23 20 16 10 10 9 10 8 11 13 13 14 15 15 16 16 17 18 18 18 19 18 18
14 10 2 24 24 11 13 23 24 21 19 19 22 23 24 26 26 23 22 19 14 14 15 7 5 7 7 7 10 12 12 13 13 14 14 14 16 17 17 18 18 18 18 17
8 5 13 25 21 23 25 24 22 20 21 22 23 24 25 24 20 20 18 13 9 12 9 4 4 6 7 8 9 10 11 11 12 13 14 15 16 17 18 18 17 17 17 17
12 10 13 19 25 26 26 25 22 22 21 23 22 23 23 21 19 16 11 10 10 8 5 3 2 3 4 6 9 9 10 11 12 14 15 17 16 16 16 17 17 16 17 16
13 12 13 15 22 25 26 24 23 23 23 23 23 21 20 20 18 13 10 8 7 5 3 3 3 4 3 5 7 8 10 11 13 13 13 14 15 16 16 17 18 18 18 19
6 11 13 14 19 24 25 25 23 23 23 22 21 19 19 18 16 12 9 8 4 2 2 4 3 4 4 3 6 8 10 11 12 14 14 14 15 15 16 18 19 19 19 19
15 22 22 24 25 26 25 26 24 24 20 19 17 17 18 15 12 12 8 4 4 5 4 3 3 4 4 3 4 8 9 10 11 13 13 14 14 14 14 15 18 18 18 18
17 18 19 22 23 25 26 24 24 17 16 15 15 13 12 11 9 7 6 5 3 4 4 3 3 4 3 2 4 6 7 12 14 13 12 13 13 14 15 15 15 16 17 17
16 18 20 21 22 24 22 21 21 18 16 13 11 11 9 8 6 6 4 5 5 5 3 2 2 4 3 2 4 6 8 9 11 12 13 14 15 15 16 17 17 17 16 16
15 20 20 19 18 19 17 17 17 14 12 11 10 8 6 5 5 5 4 3 5 4 3 2 2 3 3 3 6 8 8 12 14 14 14 14 15 16 16 16 16 16 16 15
15 16 14 15 18 16 15 14 14 13 11 10 8 7 7 7 7 6 4 3 3 3 2 2 3 3 5 8 10 8 7 8 11 11 12 13 14 14 15 15 15 15 15 15
8 13 11 11 11 12 11 10 10 8 7 7 7 7 6 6 5 4 3 3 2 1 3 3 4 7 10 9 7 7 8 7 8 11 12 13 13 14 15 14 15 14 14 14
10 9 9 9 10 9 8 8 8 7 7 7 7 6 5 5 4 4 4 2 2 1 1 5 8 11 8 7 8 8 8 9 9 10 11 11 11 10 10 10 11 10 10 12
9 10 10 9 9 8 6 7 7 6 6 6 6 6 5 5 5 5 5 4 5 3 5 7 10 6 8 8 8 11 11 10 6 4 4 5 5 4 5 6 7 9 10 13
7 8 8 8 7 6 6 6 5 4 5 6 5 4 4 4 4 4 2 1 0 2 7 4 4 8 6 8 12 6 3 1 1 2 2 2 3 3 4 6 7 9 11 12
6 6 6 6 6 5 5 5 4 4 4 3 4 4 2 1 1 0 -2 -1 -1 1 1 4 7 5 7 9 5 2 1 2 2 1 1 1 2 3 4 6 7 9 11 12
3 2 3 6 5 5 5 4 4 4 2 2 2 2 1 1 1 -0 -2 -4 -1 -1 2 6 3 4 5 4 1 0 0 1 2 2 3 3 4 4 4 5 7 10 11 12
-2 0 2 4 4 2 1 2 2 4 -2 -1 -2 -5 -2 -0 -1 -5 -6 -2 -2 1 1 1 2 3 4 2 1 -0 -0 1 2 1 2 4 4 6 6 6 8 10 12 12
-6 -5 0 1 1 1 0 -0 -0 -1 -3 -1 -3 -5 -4 -1 -2 -5 -3 -4 -1 -1 -1 -1 -0 1 -0 -0 -1 -1 1 0 0 3 2 1 3 4 4 6 8 10 12 13
-6 -7 -3 -3 2 -0 -2 -3 -2 0 -1 -2 -4 -5 -4 -3 -2 -3 -4 -3 -3 -3 -3 -4 -2 -1 -2 -1 0 2 -0 -1 -1 -0 1 2 1 1 2 3 4 6 8 9
-7 -4 -5 -4 -3 -1 -2 -1 -0 -2 -1 -1 -3 -3 2 1 -0 -2 -2 -4 -5 -5 -4 -3 -2 -3 -2 -2 0 -1 -0 -1 -1 1 2 -1 -0 1 2 2 3 4 5 7
Wind_Speed
15 16 9 15 16 13 18 23 23 33 29 13 12 16 21 14 11 11 11 13 12 14 13 12 12 12 11 9 7 5 6 6 5 4 4 4 4 4 5 5 5 6 7 8
14 14 18 24 16 19 25 25 24 29 33 14 8 5 14 20 20 17 16 15 13 14 12 11 11 10 9 7 6 5 6 5 4 4 4 5 5 6 6 5 6 7 8 8
12 5 19 20 13 13 5 8 9 19 12 8 8 4 5 10 13 14 14 15 15 14 13 11 10 8 7 6 5 5 5 4 3 3 4 5 4 4 4 5 6 6 7 8
15 10 8 4 1 2 6 9 5 8 5 3 4 8 10 6 7 10 12 13 13 12 10 8 6 7 6 4 4 4 4 4 3 3 4 4 4 6 7 6 7 8 9 9
5 7 13 2 2 2 3 7 2 4 5 6 7 5 4 5 5 9 12 11 10 9 8 8 6 4 4 5 5 5 5 5 4 5 7 8 8 8 8 8 9 9 9 10
1 6 7 3 3 4 4 11 4 4 7 6 3 7 3 7 10 12 11 9 10 9 9 8 3 4 4 3 4 5 5 6 6 6 6 8 8 8 7 7 10 9 11 11
9 8 12 6 4 1 2 4 7 8 10 10 11 6 8 11 9 6 5 7 7 8 10 6 2 1 2 3 6 6 6 7 7 7 7 8 8 7 8 9 10 11 12 12
4 4 11 8 3 3 4 4 8 10 12 12 7 9 9 9 8 7 8 6 5 6 6 3 3 3 4 6 5 5 6 6 7 7 7 7 8 9 9 9 11 12 12 13
10 10 4 8 9 5 5 9 9 14 9 12 13 11 11 10 9 10 10 8 4 4 3 4 3 1 5 4 6 6 6 8 8 7 7 8 8 9 9 9 10 11 10 12
4 4 10 8 8 9 8 16 12 13 15 13 12 10 11 10 10 9 6 5 5 3 2 3 2 3 6 8 7 6 8 8 7 6 8 7 8 9 10 9 10 10 11 13
13 16 17 12 13 15 13 10 12 10 13 15 9 9 11 10 10 9 7 5 4 3 3 5 7 7 6 6 5 6 6 7 7 7 10 10 10 10 11 11 12 13 14 14
16 10 11 14 9 10 14 18 15 14 9 6 10 11 8 9 9 10 8 7 3 3 4 5 6 10 10 6 4 5 6 6 7 9 9 10 11 13 14 16 17 18 18 18
11 2 10 20 18 15 19 18 16 15 10 10 6 7 6 7 6 5 5 2 1 2 4 7 8 9 9 7 4 4 7 8 8 10 10 11 12 13 14 14 16 16 16 18
11 8 13 11 11 13 12 7 7 7 6 5 6 7 6 6 4 3 2 1 2 3 6 7 10 13 10 5 2 5 7 11 10 10 12 12 12 13 13 13 14 14 14 16
14 7 15 15 14 11 4 6 13 13 10 7 4 7 8 7 5 2 1 1 1 3 3 3 4 8 7 5 5 5 7 9 10 11 12 13 12 12 13 13 15 16 14 15
15 9 9 10 12 5 5 5 5 3 3 4 5 3 3 3 3 3 3 2 2 4 7 8 7 7 7 5 7 7 9 12 13 11 11 11 12 13 13 13 15 15 14 14
9 10 13 10 4 3 5 6 7 5 5 6 7 4 3 4 3 2 2 3 4 8 8 6 7 10 9 6 5 10 12 12 14 11 10 11 12 12 13 15 16 16 15 15
5 7 11 10 11 10 11 11 10 9 7 5 5 3 3 3 2 4 7 8 8 8 5 6 9 11 4 6 10 12 12 14 13 11 11 12 13 14 12 13 14 15 17 17
15 13 12 13 11 9 8 8 7 7 6 6 5 5 5 4 4 6 7 9 8 8 10 10 11 8 10 12 15 11 13 14 14 12 11 12 11 13 15 17 18 20 20 20
14 13 11 11 13 13 11 10 8 8 7 7 6 6 6 6 6 6 6 6 6 7 12 13 9 9 11 15 18 12 9 5 7 12 13 16 16 18 18 21 21 20 19 18
15 14 13 12 10 10 10 10 9 9 8 7 7 6 6 7 6 7 7 8 9 12 12 13 12 7 12 17 12 7 11 13 14 14 14 15 16 16 17 17 17 17 17 16
13 14 13 11 9 7 8 8 8 7 7 8 7 6 7 7 7 7 8 9 9 15 13 10 6 16 16 11 8 11 13 13 14 14 15 14 14 16 17 17 18 17 17 16
12 13 12 7 8 5 5 6 6 5 6 7 6 7 7 7 6 8 11 9 11 14 13 7 16 18 21 8 11 13 15 15 14 13 15 16 17 17 18 18 18 18 16 16
13 13 12 12 8 6 9 8 9 4 6 7 8 9 8 7 8 7 9 12 16 17 13 13 17 20 19 11 13 14 14 13 14 16 16 18 16 16 17 18 18 17 16 18
13 13 11 11 7 7 9 10 11 5 9 6 8 10 9 8 6 11 9 10 15 15 11 14 18 18 12 12 14 14 13 14 15 15 13 16 15 16 16 16 16 16 16 13
14 13 11 12 5 5 8 11 10 5 8 9 9 11 11 11 10 11 12 12 10 13 10 12 11 13 12 13 13 11 14 14 15 15 16 14 15 16 15 16 16 16 15 15
11 14 10 9 8 7 10 11 8 9 9 9 14 15 11 8 10 14 13 12 11 10 10 11 11 13 13 13 11 12 13 12 16 15 12 14 14 15 15 16 16 16 16 15
Wind_Direction
262 276 263 268 262 237 235 245 254 273 271 288 278 237 223 195 173 168 143 141 134 126 118 112 107 103 106 113 111 96 87 75 57 49 53 40 27 10 360 355 343 335 328 322
295 280 272 281 276 254 245 252 261 270 279 297 295 245 190 185 170 175 165 157 140 129 126 126 128 133 132 117 94 75 62 51 37 37 23 11 358 350 344 339 329 319 313 307
287 2 328 301 264 249 237 233 252 268 288 336 301 235 179 162 162 166 160 149 145 145 146 148 140 125 108 95 74 55 48 32 23 16 1 343 331 319 315 317 315 316 309 304
281 306 264 273 233 209 260 280 267 294 323 10 87 77 76 82 144 152 141 140 140 148 153 146 133 115 117 94 57 40 23 12 359 337 314 305 324 338 334 326 321 309 299 295
258 237 287 267 359 8 22 302 228 170 149 140 133 115 80 65 108 135 137 142 145 147 143 142 122 102 76 38 13 356 351 345 335 327 331 329 333 328 317 306 303 301 300 300
285 279 274 201 247 221 165 287 206 214 205 184 152 209 180 119 117 125 133 144 148 144 139 137 82 48 33 10 348 336 327 325 332 325 314 311 311 304 296 293 297 298 296 295
248 253 274 212 208 169 250 292 220 216 217 196 207 218 153 148 145 125 128 118 104 133 145 125 86 86 359 339 329 327 328 319 308 308 305 294 290 285 286 293 290 287 286 286
157 222 270 171 159 211 243 256 228 215 210 205 194 152 166 181 170 171 157 152 134 145 137 100 54 33 340 309 316 312 301 303 304 301 298 292 284 285 284 283 283 283 282 285
202 235 222 199 239 252 222 239 225 203 187 176 170 188 185 199 183 181 182 162 136 112 60 31 52 142 266 273 305 304 302 296 296 295 290 285 283 285 281 272 278 284 282 288
280 268 272 280 261 260 250 236 220 194 176 181 197 195 197 190 183 172 162 156 143 139 256 291 286 256 254 288 288 287 289 295 298 293 296 285 286 280 274 272 277 281 283 282
258 285 288 280 257 261 261 227 193 182 191 203 195 196 196 191 184 183 179 166 168 215 266 290 306 304 293 283 280 288 294 300 302 303 299 296 289 280 278 269 259 259 261 266
261 258 259 278 280 273 233 216 212 203 194 179 194 203 188 185 178 183 178 172 194 242 257 289 306 310 314 307 279 270 287 294 298 298 295 294 292 293 287 281 281 286 285 284
271 275 274 276 286 272 232 212 212 204 196 190 176 171 168 172 173 169 142 147 223 284 300 311 316 314 317 321 293 271 279 295 297 300 297 291 290 287 290 296 296 291 290 292
275 301 291 271 279 312 224 182 178 139 126 121 145 123 129 139 135 124 91 46 310 321 329 337 327 314 313 305 271 279 283 283 290 286 285 284 280 278 281 285 292 290 291 294
300 256 266 293 295 282 262 184 189 179 155 134 131 152 154 167 160 131 38 51 350 305 308 316 310 308 311 295 278 279 276 281 282 279 275 277 276 273 271 273 282 284 290 293
313 309 311 306 315 340 33 22 35 58 93 137 153 136 128 101 67 37 42 19 328 309 310 309 299 284 296 284 283 280 285 293 303 301 289 283 279 284 279 278 280 278 280 284
334 341 347 346 347 46 50 49 54 74 98 84 76 68 55 55 74 63 336 313 289 287 287 276 283 291 303 287 270 294 293 291 294 306 291 285 281 281 281 280 279 275 276 283
314 13 35 40 44 58 59 59 63 67 75 84 84 78 60 51 7 338 333 329 327 321 312 304 300 290 284 298 296 288 283 284 285 277 277 280 274 270 277 292 290 285 285 284
42 44 41 44 40 47 49 49 57 68 54 37 25 18 19 22 8 345 342 332 331 331 324 315 314 348 319 308 307 289 286 286 287 284 285 301 313 304 294 286 279 281 282 282
32 29 30 36 35 37 43 44 51 47 31 21 15 22 13 4 353 344 334 319 309 299 294 299 324 326 314 307 307 290 292 332 339 316 303 298 295 290 284 283 283 281 278 275
20 17 25 32 48 49 47 33 23 18 10 22 20 9 358 352 357 343 338 328 320 311 312 329 319 316 304 293 307 32 348 331 316 306 300 294 291 289 284 280 277 274 275 274
20 13 9 22 29 42 38 28 19 8 25 11 4 9 1 344 339 333 325 315 316 322 318 308 323 302 297 333 15 351 331 318 312 305 297 290 286 286 284 282 281 279 275 272
7 359 353 8 11 11 15 15 6 7 14 353 346 353 337 323 321 324 322 322 326 313 320 340 311 318 316 32 355 339 326 315 307 296 294 293 284 279 278 278 278 278 276 272
352 349 345 343 351 8 1 356 349 14 354 339 345 344 329 315 309 316 317 319 322 315 330 319 319 322 332 350 330 319 309 301 304 299 293 304 308 298 287 283 281 281 281 283
345 338 335 340 344 346 343 338 334 334 340 328 335 329 310 294 286 306 312 311 320 329 311 320 327 329 330 313 306 302 292 305 301 296 315 303 301 308 304 304 308 302 293 289
340 328 322 315 313 343 335 320 308 288 321 317 320 315 300 295 281 308 299 309 321 312 311 304 303 319 319 302 300 301 304 304 309 301 300 305 305 302 301 304 302 301 297 295
326 333 324 337 326 325 317 307 342 317 321 314 301 294 295 280 281 300 297 301 301 297 288 287 296 308 310 308 305 305 294 301 305 306 316 307 303 301 302 302 300 297 294 291